Orbital Elements at Epoch 2459200.5 (2020-Dec-17.0) TDB
Reference: JPL 22 (heliocentric ecliptic J2000)
Element | Value | Uncertainty (1-sigma) | Units |
e | .1519880890656782 | 4.3428e-08 | |
a | 2.252979585266168 | 1.0171e-08 | au |
q | 1.910553523397579 | 1.0073e-07 | au |
i | 5.070352097135025 | 5.6738e-06 | deg |
node | 323.322578144646 | 4.0133e-05 | deg |
peri | 48.00522868029402 | 4.3732e-05 | deg |
M | 103.4728582757447 | 1.6826e-05 | deg |
tp | 2458845.475555292112 (2019-Dec-27.97555529) | 5.718e-05 | TDB |
period | 1235.191549017058 3.38 | 8.364e-06 2.29e-08 | d yr |
n | .2914527712616567 | 1.9735e-09 | deg/d |
Q | 2.595405647134757 | 1.1716e-08 | au |
|
| | Orbit Determination Parameters
Additional Information
|